Temp
7 7 7 8 9 9 10 8 9 10 10 9 9 9 11 11 11 12 13 13 13 13 12 12 12 12 12 11 11 10 9 8 7 7 7 6 6 6 5 4 3 3 3 2
6 8 9 9 8 8 8 8 9 10 9 8 9 9 11 12 12 12 12 12 13 12 12 12 12 12 12 11 10 9 8 8 7 7 7 6 6 6 5 4 4 3 3 3
8 10 8 8 8 7 8 8 8 9 9 8 9 9 11 12 12 13 13 13 13 12 12 13 13 12 12 11 10 9 8 8 7 7 6 6 6 5 5 4 3 3 3 3
6 7 7 8 8 8 7 8 9 8 7 7 9 8 10 12 12 12 13 13 13 13 13 13 12 12 11 10 9 8 8 7 7 6 6 5 5 5 4 4 3 3 2 2
7 7 6 6 7 8 8 8 8 7 7 7 8 8 9 11 12 12 12 13 13 13 13 12 12 11 11 10 8 8 8 7 7 6 6 5 5 4 4 3 3 3 2 2
7 8 8 9 8 7 8 7 7 7 7 6 8 8 8 11 12 13 12 13 13 13 12 12 11 11 10 9 8 7 8 7 6 6 5 5 5 4 3 3 3 3 2 2
5 5 7 8 7 6 6 6 5 4 4 4 9 8 9 11 12 12 13 13 13 13 12 11 11 10 9 8 7 8 7 6 6 5 5 5 4 3 3 3 3 3 3 3
4 5 6 7 7 7 6 7 6 3 3 6 9 9 12 13 12 12 13 13 12 12 11 11 10 9 8 8 8 7 7 6 6 5 5 4 4 3 3 2 2 3 3 3
5 6 8 7 6 7 6 6 7 7 8 8 10 11 12 12 12 13 13 13 12 12 12 11 9 8 8 8 7 7 7 6 5 5 4 4 3 3 3 2 2 2 2 2
6 5 7 9 7 8 7 6 6 7 5 6 8 10 12 12 13 13 13 13 12 12 11 11 9 8 8 8 8 7 6 6 6 5 4 4 3 3 2 2 3 2 2 2
5 6 7 8 7 6 7 8 8 8 8 4 5 9 12 13 13 13 13 12 12 12 11 10 9 8 8 8 8 7 7 6 6 5 4 4 3 3 3 3 3 3 2 2
4 5 6 6 7 8 7 7 9 9 7 8 9 9 12 13 13 13 13 12 12 11 11 10 9 8 8 8 8 7 7 6 6 5 4 4 4 4 3 3 3 3 2 2
2 4 5 6 7 8 8 8 9 8 9 10 8 10 12 12 13 12 12 12 12 11 11 10 9 8 9 8 8 7 7 6 6 5 5 5 4 4 3 3 3 3 3 3
-2 0 5 5 7 8 8 8 8 9 8 9 10 12 12 12 12 13 12 12 12 11 11 10 9 9 9 8 8 7 7 6 6 6 5 5 4 4 3 3 3 3 3 2
-3 -1 2 4 6 8 9 9 8 9 10 9 10 11 12 13 13 13 12 12 12 12 11 10 9 9 9 9 8 8 7 6 6 6 5 5 4 4 4 3 3 3 3 2
-3 -1 -0 3 5 6 7 9 10 10 10 10 11 11 12 13 13 12 12 12 12 12 11 10 9 9 9 9 8 8 7 7 7 6 5 5 5 4 4 3 3 3 3 3
-4 -3 -2 3 5 6 6 8 9 10 11 11 11 12 12 13 12 12 12 12 12 12 11 11 10 9 9 9 9 8 8 7 7 7 6 6 6 5 5 4 3 3 3 3
-4 -3 -3 -1 4 3 8 9 9 10 10 11 12 12 13 13 12 12 12 12 12 12 11 11 10 10 10 9 9 9 8 8 7 7 6 6 6 5 5 5 5 4 4 4
-3 -2 -3 -1 2 7 8 9 10 10 10 11 11 12 13 13 12 12 12 12 12 12 11 11 10 10 10 10 9 9 9 8 8 7 7 6 6 6 6 5 5 5 4 4
-1 -2 -2 -0 0 3 8 9 10 11 11 11 12 12 12 13 12 12 12 12 12 12 11 11 11 10 10 10 9 9 9 9 8 8 7 6 6 6 5 5 5 5 5 4
-3 -3 -3 -3 -1 5 7 10 10 9 10 11 11 12 12 13 12 12 12 12 12 12 11 11 11 11 10 10 10 9 9 9 8 8 8 7 7 6 5 5 5 5 5 5
-4 -3 -2 -2 1 4 7 9 10 9 11 11 12 12 12 13 12 12 12 12 12 12 11 11 11 11 10 10 9 9 9 9 9 9 8 8 7 7 6 6 5 5 5 5
-4 -3 -4 -1 1 0 2 4 5 8 10 11 12 12 12 12 12 12 12 12 12 12 12 11 11 10 10 10 9 9 9 9 9 9 8 8 8 8 7 7 6 7 6 6
-3 -4 -3 -2 1 1 0 1 4 7 9 11 12 12 12 13 13 12 12 12 12 12 12 12 11 10 10 10 9 8 9 9 9 9 9 8 8 8 8 8 7 7 7 7
-4 -4 -3 -2 -0 1 0 2 5 7 9 11 12 12 13 13 12 12 12 12 12 12 12 11 11 11 11 10 9 8 9 10 9 9 9 8 8 8 8 8 7 7 7 6
-4 -5 -4 -3 -3 -2 -1 2 5 7 10 11 12 12 13 13 12 12 12 12 12 12 12 12 11 11 10 10 10 9 9 9 9 9 9 9 8 8 8 8 8 8 7 7
Height
3073 3077 3062 3071 3082 3088 3093 3093 3089 3087 3094 3094 3091 3089 3088 3088 3090 3090 3091 3091 3091 3090 3092 3092 3091 3090 3089 3090 3090 3090 3089 3088 3085 3081 3078 3075 3071 3067 3061 3055 3051 3049 3047 3045
3067 3047 3061 3074 3079 3084 3086 3087 3083 3084 3090 3091 3086 3084 3082 3082 3084 3086 3086 3085 3085 3086 3088 3087 3086 3086 3085 3087 3087 3086 3085 3084 3081 3077 3075 3072 3068 3064 3058 3053 3048 3045 3044 3043
3041 3039 3061 3066 3070 3075 3076 3079 3082 3081 3087 3086 3083 3076 3076 3079 3080 3081 3081 3081 3081 3082 3083 3081 3079 3080 3082 3083 3083 3083 3082 3080 3077 3074 3072 3069 3065 3060 3055 3051 3046 3043 3042 3039
3039 3046 3052 3056 3056 3066 3068 3075 3078 3080 3084 3082 3080 3074 3071 3076 3077 3078 3079 3078 3077 3077 3077 3076 3076 3077 3079 3080 3080 3080 3078 3076 3074 3072 3069 3066 3063 3059 3053 3049 3045 3042 3040 3038
3021 3032 3044 3045 3045 3061 3062 3073 3076 3078 3077 3077 3074 3078 3063 3071 3071 3073 3073 3073 3072 3073 3073 3073 3074 3075 3077 3077 3077 3076 3074 3072 3071 3068 3066 3063 3060 3057 3052 3048 3045 3041 3039 3039
3024 3030 3036 3032 3047 3052 3063 3069 3073 3075 3076 3068 3064 3074 3058 3063 3066 3068 3069 3069 3069 3071 3070 3070 3071 3073 3074 3074 3074 3072 3071 3069 3068 3065 3063 3061 3058 3055 3051 3047 3044 3041 3039 3038
3019 3024 3028 3035 3043 3051 3058 3065 3071 3071 3068 3059 3060 3064 3052 3056 3060 3063 3065 3066 3067 3067 3068 3068 3070 3070 3071 3071 3070 3069 3068 3067 3065 3063 3061 3059 3056 3053 3050 3047 3044 3040 3039 3039
3012 3018 3019 3022 3029 3037 3046 3053 3057 3063 3060 3054 3056 3051 3044 3053 3056 3059 3060 3061 3063 3064 3066 3065 3067 3068 3068 3068 3067 3066 3065 3064 3063 3062 3059 3057 3055 3052 3049 3046 3044 3042 3041 3040
3009 3011 3016 3020 3026 3034 3037 3038 3052 3054 3051 3050 3047 3045 3047 3050 3051 3054 3055 3056 3060 3062 3063 3063 3064 3066 3066 3065 3065 3064 3063 3062 3062 3060 3058 3056 3054 3053 3049 3045 3044 3043 3042 3042
3007 3007 3009 3013 3019 3022 3027 3039 3050 3050 3050 3049 3042 3041 3044 3048 3049 3049 3051 3054 3058 3060 3060 3061 3062 3063 3063 3063 3063 3062 3061 3061 3060 3059 3057 3055 3054 3053 3050 3047 3046 3044 3044 3044
3000 3002 3001 3009 3000 3007 3019 3024 3030 3038 3038 3040 3043 3036 3041 3044 3046 3048 3050 3053 3056 3057 3059 3059 3061 3062 3061 3061 3061 3061 3060 3060 3059 3058 3055 3054 3055 3053 3050 3048 3047 3046 3046 3046
2992 2995 2993 2992 3001 3005 3011 3017 3020 3022 3028 3032 3036 3032 3037 3040 3042 3044 3048 3052 3054 3056 3057 3058 3059 3059 3059 3059 3060 3060 3059 3059 3058 3057 3056 3055 3055 3054 3051 3050 3048 3048 3048 3048
2988 2987 2989 2992 2999 2999 2998 3001 3010 3018 3025 3026 3034 3027 3032 3038 3038 3039 3046 3050 3053 3054 3056 3056 3057 3057 3057 3058 3059 3059 3058 3058 3057 3057 3056 3055 3056 3054 3053 3052 3052 3051 3051 3050
2982 2980 2979 2975 2979 2988 2992 2999 3008 3016 3019 3020 3019 3024 3029 3035 3038 3039 3044 3048 3051 3052 3054 3054 3055 3056 3056 3057 3058 3058 3057 3058 3058 3057 3057 3057 3057 3056 3055 3054 3054 3054 3054 3054
2979 2974 2976 2974 2981 2986 2991 2995 3002 3003 3009 3015 3015 3022 3027 3032 3036 3039 3043 3046 3049 3051 3052 3053 3053 3054 3055 3056 3057 3058 3058 3058 3058 3058 3058 3058 3058 3058 3058 3057 3057 3057 3057 3058
2977 2974 2971 2970 2976 2980 2987 2991 2996 3000 3007 3012 3014 3018 3024 3029 3033 3036 3040 3044 3046 3049 3051 3052 3052 3053 3054 3056 3057 3058 3058 3059 3060 3059 3059 3060 3061 3061 3061 3061 3060 3059 3060 3062
2975 2975 2973 2967 2976 2981 2985 2976 2986 2993 2998 3003 3007 3012 3019 3024 3029 3033 3038 3042 3044 3047 3049 3051 3051 3052 3053 3055 3057 3058 3059 3059 3060 3060 3061 3062 3062 3063 3064 3064 3063 3064 3064 3066
2973 2975 2978 2971 2972 2978 2956 2972 2981 2987 2991 2996 3003 3010 3015 3020 3026 3031 3036 3039 3042 3045 3048 3050 3050 3050 3052 3054 3056 3058 3059 3060 3061 3062 3062 3063 3065 3065 3066 3067 3067 3067 3068 3068
2969 2972 2974 2971 2968 2961 2962 2968 2972 2978 2984 2990 2998 3005 3011 3017 3022 3026 3032 3036 3040 3043 3046 3049 3050 3051 3051 3053 3055 3058 3059 3060 3061 3062 3063 3064 3066 3067 3068 3069 3070 3070 3071 3071
2962 2965 2971 2970 2968 2961 2966 2968 2976 2982 2981 2988 2993 2999 3006 3011 3015 3022 3028 3033 3037 3041 3045 3047 3048 3050 3050 3052 3054 3057 3059 3060 3061 3062 3064 3065 3067 3068 3070 3070 3072 3072 3073 3075
2957 2960 2965 2968 2968 2960 2958 2962 2970 2972 2978 2984 2988 2995 3001 3004 3011 3020 3025 3029 3034 3038 3042 3045 3047 3049 3050 3051 3054 3057 3059 3061 3061 3062 3064 3066 3068 3070 3071 3072 3073 3075 3075 3077
2957 2961 2962 2966 2966 2962 2957 2961 2965 2967 2972 2975 2981 2988 2995 3002 3008 3014 3019 3024 3029 3032 3037 3042 3044 3045 3047 3050 3052 3055 3059 3060 3061 3062 3064 3066 3068 3070 3072 3073 3075 3076 3077 3079
2959 2960 2957 2960 2959 2958 2954 2956 2959 2961 2965 2970 2975 2981 2988 2996 3002 3008 3014 3019 3023 3027 3033 3038 3041 3043 3045 3049 3051 3054 3057 3059 3061 3062 3064 3065 3068 3070 3071 3073 3076 3077 3079 3081
2953 2957 2956 2956 2956 2955 2955 2955 2956 2957 2960 2965 2971 2975 2980 2989 2997 3002 3008 3013 3019 3023 3027 3033 3037 3040 3043 3046 3049 3053 3054 3058 3060 3062 3064 3065 3068 3070 3071 3073 3075 3077 3079 3081
2953 2954 2952 2951 2952 2953 2954 2954 2954 2955 2956 2961 2965 2970 2976 2984 2990 2996 3002 3008 3014 3019 3023 3028 3033 3037 3040 3043 3046 3048 3051 3054 3059 3061 3063 3065 3067 3069 3071 3073 3075 3077 3079 3082
2950 2953 2949 2950 2951 2950 2952 2950 2947 2950 2953 2958 2962 2967 2972 2979 2986 2990 2997 3003 3008 3013 3018 3022 3028 3033 3036 3040 3043 3046 3048 3051 3056 3059 3062 3064 3066 3068 3070 3073 3075 3077 3078 3080
Wind_Speed
46 43 56 50 48 45 41 36 38 43 37 29 28 28 31 22 26 24 26 22 25 19 26 31 30 25 24 27 27 33 32 31 30 26 24 19 18 20 22 21 14 13 14 11
48 63 57 48 45 43 43 40 45 43 37 28 29 31 26 23 21 21 24 27 29 26 25 28 31 27 18 20 25 30 31 29 25 24 22 16 17 19 20 20 12 10 11 15
63 63 55 49 49 45 47 47 45 43 27 28 31 36 23 19 20 21 15 17 18 22 25 23 23 17 15 18 24 29 27 25 22 23 19 15 16 20 20 18 13 9 8 11
58 61 30 51 54 49 47 44 40 37 32 23 2 9 19 22 24 17 17 20 23 24 27 23 13 13 11 17 24 25 23 21 20 19 15 13 15 17 18 16 11 9 9 4
48 48 51 35 47 49 50 41 36 32 32 29 31 16 33 22 22 17 20 18 15 13 14 10 8 9 12 19 24 21 20 18 18 14 13 12 14 15 16 13 11 9 6 0
43 38 40 60 40 37 38 37 26 28 32 21 40 18 17 26 24 20 16 11 9 10 10 7 9 10 15 19 17 18 15 17 13 12 11 11 12 12 13 13 10 8 3 3
35 33 32 37 44 36 36 32 5 7 9 7 25 18 35 20 12 19 16 17 14 13 7 4 7 9 9 13 15 12 15 12 9 8 8 10 9 10 11 13 8 7 4 4
34 24 44 38 37 38 42 38 15 6 4 5 26 11 26 19 14 19 22 21 15 11 6 1 7 7 9 11 11 14 11 9 7 5 7 7 7 9 13 11 4 6 5 5
29 32 11 45 35 35 34 47 38 5 6 0 13 29 32 24 24 24 17 16 17 8 3 6 4 6 6 11 12 8 8 5 4 5 6 6 6 9 11 7 6 7 3 6
11 22 33 14 35 45 40 29 29 31 5 4 6 12 18 16 7 8 12 13 14 9 2 6 6 6 8 7 5 5 4 3 2 3 3 5 5 8 9 8 9 7 5 5
29 12 10 32 38 47 44 32 32 29 18 5 2 9 18 16 15 14 13 14 9 5 4 5 6 7 6 4 3 3 2 1 2 2 2 4 3 5 10 8 7 8 9 8
38 16 18 35 15 28 41 45 31 27 15 28 14 19 4 9 15 20 17 14 9 6 4 6 8 7 3 5 3 2 1 1 1 1 2 2 4 5 8 8 10 10 11 10
14 26 18 7 21 20 41 52 51 35 15 17 15 18 23 24 12 19 20 14 9 5 5 7 8 6 5 5 3 1 3 1 0 1 3 4 5 4 6 9 12 14 11 10
5 19 38 22 14 38 35 41 43 40 36 34 33 28 23 16 14 15 21 15 11 4 4 4 10 6 7 6 3 1 3 2 2 3 3 5 6 6 6 9 13 15 15 14
12 10 26 46 41 13 32 34 46 48 44 37 41 32 25 20 20 17 20 16 12 5 5 5 9 6 8 7 4 2 2 3 4 5 5 9 8 9 10 10 11 13 12 10
13 9 15 33 41 48 25 22 37 51 46 41 37 34 29 22 23 23 23 13 8 7 6 6 10 9 10 8 6 4 3 2 6 7 7 9 10 12 10 11 12 12 11 9
15 11 18 18 30 34 32 40 26 39 47 50 41 39 31 27 23 26 24 14 8 8 8 6 8 8 12 9 7 6 5 3 6 8 8 9 10 12 10 9 11 13 16 17
23 23 15 13 10 8 41 43 37 26 38 46 41 35 34 27 26 26 23 13 11 13 11 8 7 7 15 12 9 8 6 4 5 9 10 10 10 12 12 11 11 11 12 14
23 25 9 6 7 14 23 23 44 42 29 38 45 44 34 29 27 31 25 20 13 12 12 8 8 6 13 13 11 8 7 6 5 8 10 11 11 12 13 11 10 11 12 13
20 24 21 4 5 6 8 24 9 29 39 27 39 43 44 32 35 34 23 18 18 18 15 13 10 8 12 15 13 9 8 8 6 7 10 11 12 11 10 12 10 9 10 11
7 15 25 17 7 3 7 17 23 29 22 28 31 40 41 35 35 29 27 23 18 19 21 17 12 5 8 12 14 12 10 9 9 7 8 11 11 11 11 9 9 9 9 10
2 3 10 13 7 6 5 19 29 22 22 24 33 36 37 34 28 29 27 26 24 21 25 23 17 13 9 12 12 13 12 10 10 9 8 9 11 11 12 11 8 8 9 10
11 8 8 5 10 1 9 13 18 21 31 25 37 36 39 37 30 30 30 27 28 24 21 25 21 18 14 12 13 12 15 13 11 12 11 10 11 11 11 11 10 9 9 9
11 11 15 7 13 6 4 8 11 17 21 34 32 27 38 41 37 32 29 31 26 24 24 26 25 20 16 12 16 13 16 16 14 12 14 13 12 12 11 12 12 11 10 11
4 6 8 11 16 14 1 5 17 18 18 24 33 29 36 35 36 26 33 31 30 29 24 28 26 22 16 14 20 19 19 20 17 16 14 16 16 15 14 13 13 13 13 12
7 4 12 12 14 4 5 4 14 20 26 29 28 30 34 37 37 31 28 30 29 30 28 26 26 24 19 16 23 21 19 19 18 19 18 15 18 18 18 16 15 13 13 14
Wind_Direction
223 224 226 227 235 244 251 248 258 264 271 277 280 284 270 267 274 285 274 274 259 260 267 273 274 268 284 282 287 279 278 284 293 296 307 307 314 324 328 321 298 299 304 308
218 229 234 237 233 237 238 245 254 266 268 277 280 282 271 262 278 280 288 268 258 253 278 278 270 270 277 288 277 271 273 288 291 298 306 300 314 324 335 337 315 300 309 304
218 237 228 230 234 228 235 241 250 257 269 273 283 284 266 254 273 288 275 269 262 260 272 286 287 276 282 276 269 263 276 290 289 301 300 296 316 330 339 338 327 317 305 308
227 227 234 234 231 230 233 239 249 258 270 275 282 296 279 258 266 265 273 298 278 272 284 281 270 274 276 268 261 264 286 289 294 300 294 294 319 327 341 339 337 335 331 334
224 228 218 222 231 228 235 240 243 254 266 272 271 269 273 266 269 266 278 293 279 271 273 282 279 258 271 261 254 277 290 287 297 295 292 302 315 333 344 344 344 337 345 33
231 232 230 231 231 230 232 235 241 260 260 265 265 249 271 262 256 276 289 295 262 276 263 258 259 258 261 253 273 285 285 291 300 292 298 304 316 337 357 358 347 356 15 146
224 221 227 230 226 224 222 227 234 253 226 226 250 256 258 260 261 275 272 288 266 250 230 233 259 272 272 270 280 282 291 298 291 286 301 305 332 344 349 352 355 14 73 135
211 219 219 220 217 212 213 210 184 205 197 187 240 239 242 244 271 280 287 277 240 229 211 268 284 260 263 276 277 292 290 297 276 292 303 329 346 350 347 338 24 65 77 115
208 225 243 226 212 212 207 212 210 268 273 277 212 244 255 270 266 274 262 239 212 227 242 296 247 246 264 282 276 281 294 268 286 288 300 353 359 9 12 31 93 51 91 132
235 224 223 217 217 226 218 202 196 216 211 207 249 232 221 245 237 247 239 210 208 245 272 251 234 224 290 269 257 287 270 223 278 285 317 1 24 27 24 55 80 46 99 136
213 209 209 199 208 202 200 193 207 214 230 170 184 245 229 230 250 273 241 210 213 202 230 220 226 228 283 235 244 291 245 178 265 344 15 350 53 48 29 49 81 65 107 128
211 238 237 212 210 219 204 204 192 192 196 229 243 253 222 229 250 255 226 208 194 208 202 229 212 230 256 218 233 312 6 193 276 32 21 24 67 51 43 60 87 104 109 101
196 223 245 245 226 211 211 211 213 214 206 215 197 247 239 246 268 207 211 204 180 164 219 231 213 235 203 207 224 343 29 164 210 82 52 58 78 80 54 83 92 89 110 111
260 227 221 219 218 209 217 216 211 218 221 228 232 236 239 238 228 198 198 204 193 176 224 241 208 227 194 194 203 54 48 133 147 98 97 94 90 78 67 90 109 96 90 97
332 283 234 232 233 226 228 221 211 215 221 215 231 237 237 235 226 218 199 202 200 205 238 256 209 219 187 187 181 124 74 137 139 117 124 106 100 89 94 101 118 122 109 96
326 327 281 237 231 236 236 209 222 222 222 227 235 233 237 237 207 213 197 200 225 224 235 241 210 211 180 178 172 150 128 134 140 128 132 117 118 107 109 99 93 108 129 88
293 321 329 252 231 238 249 224 204 220 226 226 225 232 232 221 212 200 199 194 215 208 217 251 227 211 177 168 165 154 147 140 135 135 143 134 127 124 124 113 103 100 106 108
274 287 301 290 223 193 242 224 217 222 224 228 229 228 228 229 219 216 205 211 218 222 210 212 184 195 177 168 166 158 157 149 131 144 149 152 140 128 120 117 115 112 110 117
271 268 248 260 253 240 237 233 223 224 220 226 227 227 228 225 217 213 211 222 227 222 201 199 154 166 179 169 163 162 165 159 137 141 153 159 162 146 134 120 114 118 117 117
239 243 221 201 258 221 213 220 250 227 238 230 229 229 226 222 214 201 210 225 226 227 204 194 181 176 176 177 172 170 166 168 159 139 157 165 176 169 159 141 131 119 120 122
149 195 209 239 283 286 252 213 202 200 219 232 228 227 226 226 220 221 227 218 220 204 205 202 197 164 174 171 177 178 172 168 180 155 154 167 177 179 176 168 152 143 135 133
326 302 204 217 241 259 164 187 201 215 194 210 217 220 225 228 227 220 225 219 213 196 200 209 195 181 183 191 185 184 179 182 184 177 164 162 185 184 171 178 178 160 152 148
276 226 319 228 208 95 95 165 171 188 199 193 205 212 211 218 224 224 219 217 208 210 203 207 205 191 184 206 204 202 193 188 185 190 185 173 180 180 169 166 176 172 164 162
269 290 283 265 182 176 109 138 184 176 185 202 209 218 212 214 218 223 213 218 215 219 207 207 209 198 190 204 207 207 202 202 189 188 199 191 192 184 175 169 166 172 172 163
146 330 294 284 195 231 205 169 190 191 190 194 198 208 204 205 212 221 219 217 218 220 216 208 212 208 205 206 205 207 202 200 197 191 195 199 198 195 184 176 171 168 174 177
37 4 335 287 301 279 213 151 161 192 208 206 197 192 203 208 208 212 221 224 223 218 216 211 210 211 208 207 206 203 203 199 199 199 196 197 202 202 193 187 183 184 184 183